| time (UTC) | temp C | wind direction | speed KPH | gust KPH | rain 1hr cm | rain 24hr cm | rain mn cm | humidity % | barometer mb |
| 20260508045208 | 5 | 206 | 0.0 | 0.0 | 0.00 | 0.00 | 0.00 | 84 | 1008.3 |
| 20260508044208 | 5 | 210 | 0.0 | 3.2 | 0.00 | 0.00 | 0.00 | 85 | 1008.6 |
| 20260508043201 | 5 | 300 | 0.0 | 0.0 | 0.00 | 0.00 | 0.00 | 86 | 1008.6 |
| 20260508042158 | 5 | 240 | 0.0 | 3.2 | 0.00 | 0.00 | 0.00 | 86 | 1008.6 |
| 20260508041652 | 6 | 219 | 0.0 | 0.0 | 0.00 | 0.00 | 0.00 | 86 | 1008.6 |
| 20260508040650 | 6 | 218 | 0.0 | 0.0 | 0.00 | 0.00 | 0.00 | 84 | 1008.6 |
| 20260508035144 | 6 | 248 | 0.0 | 0.0 | 0.00 | 0.00 | 0.00 | 81 | 1008.3 |
| 20260508034143 | 6 | 355 | 0.0 | 0.0 | 0.00 | 0.00 | 0.00 | 82 | 1008.3 |
| 20260508033138 | 6 | 320 | 0.0 | 0.0 | 0.00 | 0.00 | 0.00 | 83 | 1008.3 |
| 20260508032132 | 6 | 243 | 0.0 | 0.0 | 0.00 | 0.00 | 0.00 | 83 | 1008.6 |
| 20260508031128 | 6 | 241 | 0.0 | 0.0 | 0.00 | 0.00 | 0.00 | 81 | 1008.6 |
| 20260508030125 | 6 | 276 | 0.0 | 0.0 | 0.00 | 0.00 | 0.00 | 80 | 1008.3 |
| 20260508025123 | 5 | 280 | 0.0 | 0.0 | 0.00 | 0.00 | 0.00 | 80 | 1008.6 |
| 20260508024121 | 5 | 298 | 0.0 | 0.0 | 0.00 | 0.00 | 0.00 | 82 | 1008.6 |
| 20260508023114 | 5 | 240 | 0.0 | 0.0 | 0.00 | 0.00 | 0.00 | 82 | 1008.3 |
| 20260508022612 | 5 | 226 | 0.0 | 0.0 | 0.00 | 0.00 | 0.00 | 81 | 1008.6 |
| 20260508021104 | 5 | 222 | 0.0 | 0.0 | 0.00 | 0.00 | 0.00 | 82 | 1008.6 |
| 20260508020602 | 5 | 257 | 0.0 | 0.0 | 0.00 | 0.00 | 0.00 | 82 | 1008.6 |
| 20260508015058 | 5 | 208 | 0.0 | 0.0 | 0.00 | 0.00 | 0.00 | 81 | 1008.6 |
| 20260508014053 | 6 | 213 | 0.0 | 0.0 | 0.00 | 0.00 | 0.00 | 80 | 1008.3 |
| 20260508013050 | 6 | 214 | 0.0 | 0.0 | 0.00 | 0.00 | 0.00 | 79 | 1008.3 |
| 20260508012047 | 6 | 223 | 0.0 | 0.0 | 0.00 | 0.00 | 0.00 | 76 | 1008.3 |
| 20260508011042 | 7 | 229 | 0.0 | 0.0 | 0.00 | 0.00 | 0.00 | 74 | 1008.3 |
| 20260508010051 | 7 | 308 | 0.0 | 0.0 | 0.00 | 0.00 | 0.00 | 72 | 1008.3 |
| 20260508005037 | 7 | 302 | 0.0 | 0.0 | 0.00 | 0.00 | 0.00 | 71 | 1007.9 |
| 20260508004035 | 7 | 278 | 0.0 | 3.2 | 0.00 | 0.00 | 0.00 | 69 | 1008.3 |
| 20260508003032 | 7 | 326 | 0.0 | 3.2 | 0.00 | 0.00 | 0.00 | 68 | 1007.9 |
| 20260508002027 | 8 | 251 | 0.0 | 3.2 | 0.00 | 0.00 | 0.00 | 68 | 1007.9 |
| 20260508001028 | 8 | 244 | 0.0 | 3.2 | 0.00 | 0.00 | 0.00 | 67 | 1007.9 |
| 20260508000014 | 8 | 270 | 0.0 | 0.0 | 0.00 | 0.00 | 0.00 | 66 | 1007.6 |
| 20260507235010 | 8 | 236 | 0.0 | 3.2 | 0.00 | 0.00 | 0.00 | 65 | 1007.9 |
| 20260507234507 | 9 | 263 | 0.0 | 3.2 | 0.00 | 0.00 | 0.00 | 64 | 1007.9 |
| 20260507233002 | 9 | 290 | 3.2 | 8.0 | 0.00 | 0.00 | 0.00 | 61 | 1007.6 |
| 20260507231959 | 9 | 66 | 4.8 | 12.9 | 0.00 | 0.00 | 0.00 | 60 | 1007.6 |
| 20260507230953 | 10 | 238 | 6.4 | 8.0 | 0.00 | 0.00 | 0.00 | 57 | 1007.6 |
| 20260507225949 | 10 | 333 | 0.0 | 8.0 | 0.00 | 0.00 | 0.00 | 59 | 1007.6 |
| 20260507225446 | 10 | 255 | 0.0 | 8.0 | 0.00 | 0.00 | 0.00 | 59 | 1007.6 |
| 20260507223946 | 10 | 295 | 0.0 | 8.0 | 0.00 | 0.00 | 0.00 | 56 | 1007.6 |
| 20260507222937 | 11 | 310 | 1.6 | 12.9 | 0.00 | 0.00 | 0.00 | 56 | 1007.6 |
| 20260507221935 | 11 | 328 | 1.6 | 16.1 | 0.00 | 0.00 | 0.00 | 54 | 1007.6 |
| 20260507220933 | 11 | 268 | 3.2 | 12.9 | 0.00 | 0.00 | 0.00 | 51 | 1007.6 |
| 20260507220929 | 11 | 268 | 4.8 | 12.9 | 0.00 | 0.00 | 0.00 | 51 | 1007.6 |
| 20260507214922 | 10 | 146 | 3.2 | 16.1 | 0.00 | 0.00 | 0.00 | 52 | 1007.2 |
| 20260507213920 | 11 | 199 | 3.2 | 16.1 | 0.00 | 0.00 | 0.00 | 53 | 1007.6 |
| 20260507213415 | 11 | 238 | 8.0 | 16.1 | 0.00 | 0.00 | 0.00 | 55 | 1007.6 |
| 20260507211911 | 11 | 298 | 3.2 | 12.9 | 0.00 | 0.00 | 0.00 | 57 | 1007.2 |
| 20260507210905 | 11 | 207 | 1.6 | 20.9 | 0.00 | 0.00 | 0.00 | 52 | 1007.2 |
| 20260507205904 | 10 | 170 | 12.9 | 16.1 | 0.00 | 0.00 | 0.00 | 54 | 1007.2 |
| 20260507204857 | 10 | 266 | 0.0 | 16.1 | 0.00 | 0.00 | 0.00 | 59 | 1007.2 |
| 20260507203855 | 10 | 214 | 3.2 | 16.1 | 0.00 | 0.00 | 0.00 | 62 | 1007.6 |
| 20260507202850 | 10 | 243 | 1.6 | 12.9 | 0.00 | 0.00 | 0.00 | 62 | 1007.6 |
| 20260507202347 | 10 | 221 | 1.6 | 12.9 | 0.00 | 0.00 | 0.00 | 63 | 1007.6 |
| 20260507200840 | 11 | 192 | 8.0 | 24.1 | 0.00 | 0.00 | 0.00 | 60 | 1007.2 |
| 20260507195838 | 12 | 221 | 4.8 | 20.9 | 0.00 | 0.00 | 0.00 | 57 | 1007.6 |
| 20260507195338 | 12 | 220 | 0.0 | 20.9 | 0.00 | 0.00 | 0.00 | 55 | 1007.2 |
| 20260507194833 | 12 | 206 | 6.4 | 16.1 | 0.00 | 0.00 | 0.00 | 52 | 1007.2 |
| 20260507192824 | 11 | 187 | 8.0 | 12.9 | 0.00 | 0.00 | 0.00 | 55 | 1007.2 |
| 20260507191821 | 12 | 245 | 4.8 | 12.9 | 0.00 | 0.00 | 0.00 | 51 | 1007.2 |
| 20260507190818 | 11 | 295 | 6.4 | 24.1 | 0.00 | 0.00 | 0.00 | 58 | 1007.2 |
| 20260507190313 | 11 | 156 | 4.8 | 20.9 | 0.00 | 0.00 | 0.00 | 52 | 1007.2 |
| 20260507184808 | 11 | 251 | 4.8 | 16.1 | 0.00 | 0.00 | 0.00 | 52 | 1007.2 |
| 20260507183806 | 11 | 3 | 8.0 | 12.9 | 0.00 | 0.00 | 0.00 | 57 | 1007.6 |
| 20260507182800 | 10 | 274 | 3.2 | 16.1 | 0.00 | 0.00 | 0.00 | 56 | 1007.2 |
| 20260507181758 | 10 | 300 | 3.2 | 16.1 | 0.00 | 0.00 | 0.00 | 56 | 1007.6 |
| 20260507180751 | 10 | 256 | 3.2 | 16.1 | 0.00 | 0.00 | 0.00 | 58 | 1007.6 |
| 20260507175748 | 11 | 332 | 11.3 | 20.9 | 0.00 | 0.00 | 0.00 | 55 | 1007.2 |
| 20260507174744 | 11 | 189 | 14.5 | 20.9 | 0.00 | 0.00 | 0.00 | 55 | 1007.2 |
| 20260507173741 | 11 | 12 | 9.7 | 20.9 | 0.00 | 0.00 | 0.00 | 56 | 1007.2 |
| 20260507172736 | 11 | 276 | 1.6 | 37.0 | 0.00 | 0.00 | 0.00 | 54 | 1006.9 |
| 20260507172233 | 10 | 290 | 4.8 | 24.1 | 0.00 | 0.00 | 0.00 | 56 | 1007.2 |
| 20260507170727 | 11 | 302 | 3.2 | 20.9 | 0.00 | 0.00 | 0.00 | 56 | 1006.9 |
| 20260507165725 | 11 | 238 | 11.3 | 24.1 | 0.00 | 0.00 | 0.00 | 56 | 1007.2 |
| 20260507164722 | 11 | 288 | 4.8 | 16.1 | 0.00 | 0.00 | 0.00 | 56 | 1006.9 |
| 20260507164219 | 11 | 293 | 6.4 | 24.1 | 0.00 | 0.00 | 0.00 | 57 | 1007.2 |
| 20260507162710 | 11 | 226 | 12.9 | 27.4 | 0.00 | 0.00 | 0.00 | 57 | 1007.2 |
| 20260507162209 | 11 | 87 | 4.8 | 27.4 | 0.00 | 0.00 | 0.00 | 54 | 1007.2 |
| 20260507160703 | 10 | 277 | 8.0 | 27.4 | 0.00 | 0.00 | 0.00 | 58 | 1007.2 |
| 20260507155659 | 10 | 209 | 8.0 | 27.4 | 0.00 | 0.00 | 0.00 | 58 | 1007.2 |
| 20260507154656 | 11 | 228 | 17.7 | 27.4 | 0.00 | 0.03 | 0.00 | 60 | 1007.2 |
| 20260507153655 | 10 | 165 | 9.7 | 27.4 | 0.00 | 0.03 | 0.00 | 60 | 1007.2 |
| 20260507153148 | 10 | 198 | 3.2 | 27.4 | 0.00 | 0.05 | 0.00 | 66 | 1007.2 |
| 20260507151644 | 10 | 240 | 9.7 | 27.4 | 0.00 | 0.05 | 0.00 | 64 | 1007.2 |
| 20260507150639 | 10 | 200 | 6.4 | 24.1 | 0.00 | 0.05 | 0.00 | 63 | 1007.2 |
| 20260507145635 | 10 | 223 | 8.0 | 37.0 | 0.00 | 0.05 | 0.00 | 65 | 1007.2 |
| 20260507144631 | 10 | 246 | 6.4 | 24.1 | 0.00 | 0.10 | 0.00 | 63 | 1006.9 |
| 20260507143630 | 10 | 106 | 6.4 | 20.9 | 0.00 | 0.10 | 0.00 | 66 | 1007.2 |
| 20260507142624 | 10 | 1 | 6.4 | 20.9 | 0.00 | 0.13 | 0.00 | 65 | 1007.2 |
| 20260507142122 | 10 | 233 | 3.2 | 16.1 | 0.00 | 0.13 | 0.00 | 65 | 1007.2 |
| 20260507140615 | 10 | 244 | 9.7 | 24.1 | 0.00 | 0.15 | 0.00 | 65 | 1007.2 |
| 20260507135613 | 10 | 210 | 8.0 | 12.9 | 0.00 | 0.15 | 0.00 | 64 | 1007.2 |
| 20260507134621 | 10 | 236 | 4.8 | 24.1 | 0.00 | 0.20 | 0.00 | 66 | 1007.2 |
| 20260507133605 | 9 | 242 | 3.2 | 20.9 | 0.00 | 0.23 | 0.00 | 66 | 1007.2 |
| 20260507132600 | 9 | 244 | 3.2 | 20.9 | 0.00 | 0.23 | 0.00 | 67 | 1007.2 |
| 20260507131557 | 9 | 275 | 6.4 | 20.9 | 0.00 | 0.28 | 0.00 | 68 | 1007.2 |
| 20260507130551 | 9 | 128 | 4.8 | 16.1 | 0.00 | 0.33 | 0.00 | 67 | 1007.6 |
| 20260507125549 | 8 | 187 | 4.8 | 16.1 | 0.00 | 0.33 | 0.00 | 68 | 1007.2 |
| 20260507124544 | 8 | 158 | 3.2 | 20.9 | 0.00 | 0.36 | 0.00 | 67 | 1007.2 |
| 20260507123542 | 8 | 355 | 4.8 | 20.9 | 0.00 | 0.36 | 0.00 | 68 | 1007.2 |
| 20260507122537 | 7 | 214 | 11.3 | 24.1 | 0.00 | 0.36 | 0.00 | 70 | 1007.2 |
| 20260507121532 | 7 | 218 | 6.4 | 20.9 | 0.00 | 0.36 | 0.00 | 70 | 1007.2 |
| 20260507120535 | 7 | 177 | 6.4 | 27.4 | 0.00 | 0.36 | 0.00 | 71 | 1007.2 |
| 20260507120531 | 7 | 217 | 11.3 | 20.9 | 0.00 | 0.36 | 0.00 | 70 | 1007.2 |
| 20260507114521 | 6 | 223 | 9.7 | 20.9 | 0.00 | 0.36 | 0.00 | 73 | 1007.2 |
| 20260507113523 | 6 | 241 | 3.2 | 27.4 | 0.00 | 0.36 | 0.00 | 74 | 1007.2 |
| 20260507112522 | 5 | 211 | 8.0 | 24.1 | 0.00 | 0.38 | 0.00 | 79 | 1007.2 |
| 20260507112518 | 6 | 43 | 3.2 | 24.1 | 0.00 | 0.36 | 0.00 | 76 | 1007.2 |
| 20260507111007 | 6 | 190 | 4.8 | 24.1 | 0.00 | 0.43 | 0.00 | 79 | 1007.2 |
| 20260507110004 | 6 | 241 | 4.8 | 16.1 | 0.00 | 0.43 | 0.00 | 78 | 1007.2 |
| 20260507104457 | 6 | 124 | 1.6 | 20.9 | 0.00 | 0.43 | 0.00 | 79 | 1006.9 |
| 20260507103454 | 6 | 264 | 9.7 | 16.1 | 0.00 | 0.43 | 0.00 | 80 | 1006.9 |
| 20260507102449 | 6 | 106 | 3.2 | 12.9 | 0.00 | 0.43 | 0.00 | 83 | 1006.6 |
| 20260507101447 | 6 | 172 | 3.2 | 16.1 | 0.00 | 0.46 | 0.00 | 85 | 1006.6 |
| 20260507100442 | 6 | 223 | 0.0 | 16.1 | 0.00 | 0.46 | 0.00 | 85 | 1006.6 |
| 20260507095437 | 6 | 201 | 0.0 | 8.0 | 0.00 | 0.46 | 0.00 | 85 | 1006.1 |
| 20260507094934 | 6 | 218 | 4.8 | 12.9 | 0.00 | 0.46 | 0.00 | 86 | 1006.1 |
| 20260507093429 | 6 | 191 | 9.7 | 16.1 | 0.00 | 0.46 | 0.00 | 89 | 1006.6 |
| 20260507092427 | 6 | 212 | 3.2 | 16.1 | 0.00 | 0.46 | 0.00 | 92 | 1006.6 |
| 20260507091437 | 6 | 208 | 3.2 | 12.9 | 0.00 | 0.46 | 0.00 | 95 | 1006.9 |
| 20260507090419 | 6 | 176 | 4.8 | 20.9 | 0.00 | 0.46 | 0.00 | 96 | 1006.6 |
| 20260507085416 | 6 | 200 | 3.2 | 8.0 | 0.00 | 0.46 | 0.00 | 97 | 1006.6 |
| 20260507084911 | 6 | 176 | 3.2 | 8.0 | 0.00 | 0.46 | 0.00 | 97 | 1006.6 |
| 20260507083408 | 6 | 178 | 0.0 | 8.0 | 0.00 | 0.46 | 0.00 | 97 | 1006.1 |
| 20260507082402 | 6 | 196 | 1.6 | 8.0 | 0.00 | 0.46 | 0.00 | 97 | 1006.1 |
| 20260507081400 | 6 | 235 | 0.0 | 16.1 | 0.00 | 0.46 | 0.00 | 97 | 1006.1 |
| 20260507080855 | 6 | 242 | 0.0 | 12.9 | 0.00 | 0.46 | 0.00 | 97 | 1006.6 |
| 20260507075351 | 6 | 239 | 0.0 | 8.0 | 0.00 | 0.46 | 0.00 | 97 | 1006.6 |
| 20260507074348 | 6 | 197 | 8.0 | 12.9 | 0.00 | 0.46 | 0.00 | 97 | 1006.6 |
| 20260507073345 | 6 | 160 | 0.0 | 8.0 | 0.00 | 0.46 | 0.00 | 96 | 1006.9 |
| 20260507072340 | 6 | 160 | 0.0 | 12.9 | 0.00 | 0.46 | 0.00 | 95 | 1006.6 |
| 20260507071338 | 6 | 263 | 6.4 | 12.9 | 0.00 | 0.46 | 0.00 | 95 | 1006.9 |
| 20260507070333 | 6 | 185 | 0.0 | 8.0 | 0.00 | 0.46 | 0.00 | 94 | 1006.9 |
| 20260507065328 | 6 | 210 | 3.2 | 16.1 | 0.00 | 0.46 | 0.00 | 94 | 1006.9 |
| 20260507064324 | 6 | 195 | 3.2 | 8.0 | 0.00 | 0.46 | 0.00 | 94 | 1006.9 |
| 20260507063323 | 6 | 210 | 0.0 | 8.0 | 0.00 | 0.46 | 0.00 | 94 | 1006.9 |
| 20260507062320 | 6 | 253 | 1.6 | 8.0 | 0.00 | 0.46 | 0.00 | 94 | 1006.9 |
| 20260507061313 | 6 | 176 | 0.0 | 8.0 | 0.00 | 0.46 | 0.00 | 93 | 1006.9 |
| 20260507060308 | 6 | 252 | 6.4 | 12.9 | 0.00 | 0.46 | 0.00 | 93 | 1007.2 |
| 20260507055306 | 6 | 267 | 3.2 | 12.9 | 0.00 | 0.46 | 0.00 | 93 | 1007.2 |
| 20260507054301 | 6 | 292 | 0.0 | 8.0 | 0.00 | 0.46 | 0.00 | 93 | 1007.2 |
| 20260507053259 | 6 | 225 | 3.2 | 8.0 | 0.00 | 0.46 | 0.00 | 93 | 1007.2 |
| 20260507052253 | 6 | 234 | 0.0 | 8.0 | 0.00 | 0.46 | 0.00 | 94 | 1007.6 |
| 20260507051249 | 6 | 218 | 0.0 | 8.0 | 0.00 | 0.46 | 0.00 | 94 | 1007.6 |
| 20260507050747 | 6 | 217 | 1.6 | 8.0 | 0.00 | 0.46 | 0.00 | 94 | 1007.6 |